Ostrava, Czech Republic

3:42 PM CEST on October 17, 2017 (GMT +0200)
Mosnov

Weather History for LKMT - October, 2012

Change the Weather History Date:

Friday, October 26, 2012

  Actual Average Record
Temperature  
Mean Temperature 40 °F -  
Max Temperature 44 °F 46 °F - ()
Min Temperature 37 °F 35 °F - ()
Degree Days  
Heating Degree Days 24    
Moisture  
Dew Point 37 °F    
Average Humidity 80    
Maximum Humidity 93    
Minimum Humidity 51    
Precipitation  
Precipitation 0.00 in 0.06 in - ()
Sea Level Pressure  
Sea Level Pressure 29.81 in    
Wind  
Wind Speed 9 mph ()    
Max Wind Speed 18 mph    
Max Gust Speed -    
Visibility 6.0 miles    
Events Rain , Snow    
T = Trace of Precipitation, MM = Missing Value Source: Averaged Metar Reports

Daily Weather History Graph

Daily Weather History Graph

Search for Another Location

Airport or City:

Trip Planner

Search our weather history database for the weather conditions in past years. The results will help you decide how hot, cold, wet, or windy it might be!

Date:

Astronomy

Oct. 26, 2012 Rise Set
Actual Time 7:26 AM CEST 5:35 PM CEST
Civil Twilight 6:53 AM CEST 6:08 PM CEST
Nautical Twilight 6:16 AM CEST 6:45 PM CEST
Astronomical Twilight 5:38 AM CEST 7:22 PM CEST
Moon 3:55 PM CEST (10/26) 3:49 AM CEST (10/26)
Length of Visible Light 11h 14m
Length of Day
10h 08m
Waxing Gibbous, 89% of the Moon is Illuminated
Oct 26
Waxing Gibbous
Oct 29
Full
Nov 7
Last Quarter
Nov 13
New
Nov 20
First Quarter

Hourly Weather History & Observations

Time (CEST) Temp. Windchill Dew Point Humidity Pressure Visibility Wind Dir Wind Speed Gust Speed Precip Events Conditions
12:00 AM 48.2 °F - 44.6 °F 87% 29.77 in 6.2 mi SW 15.0 mph - N/A   Partly Cloudy
12:30 AM 48.2 °F - 44.6 °F 87% 29.77 in - SW 13.8 mph - N/A   Clear
1:00 AM 48.2 °F - 44.6 °F 87% 29.77 in 6.2 mi SW 18.4 mph - N/A   Scattered Clouds
1:30 AM 48.2 °F - 44.6 °F 87% 29.77 in 6.2 mi SW 17.3 mph - N/A   Mostly Cloudy
2:00 AM 47 °F - 45 °F 88% 29.80 in 6 mi SW 13.4 mph - - Rain Light Rain
2:00 AM 48.2 °F - 44.6 °F 87% 29.77 in 6.2 mi SW 12.7 mph - N/A Rain Light Rain
2:30 AM 48.2 °F - 44.6 °F 87% 29.77 in 6.2 mi SW 12.7 mph - N/A   Partly Cloudy
3:00 AM 48.2 °F - 44.6 °F 87% 29.77 in - SW 12.7 mph - N/A   Clear
3:30 AM 46.4 °F 41.1 °F 42.8 °F 87% 29.77 in 6.2 mi SW 11.5 mph - N/A   Mostly Cloudy
4:00 AM 46.4 °F 41.9 °F 44.6 °F 93% 29.77 in 6.2 mi WSW 9.2 mph - N/A   Mostly Cloudy
4:30 AM 46.4 °F 41.9 °F 41.0 °F 81% 29.80 in 6.2 mi North 9.2 mph - N/A Rain Light Rain
5:00 AM 44.6 °F 41.4 °F 41.0 °F 87% 29.80 in 6.2 mi North 5.8 mph - N/A Rain Light Rain
5:30 AM 44.6 °F - 41.0 °F 87% 29.80 in 6.2 mi Variable 2.3 mph - N/A Rain Light Rain
6:00 AM 44.6 °F 43.1 °F 41.0 °F 87% 29.83 in 6.2 mi SSE 3.5 mph - N/A Rain Light Rain
6:30 AM 44.6 °F 43.1 °F 41.0 °F 87% 29.83 in 6.2 mi West 3.5 mph - N/A Rain Light Rain
7:00 AM 44.6 °F - 41.0 °F 87% 29.83 in 6.2 mi Variable 1.2 mph - N/A   Mostly Cloudy
7:30 AM 44.6 °F 41.4 °F 41.0 °F 87% 29.83 in 6.2 mi NNE 5.8 mph - N/A   Mostly Cloudy
8:00 AM 41.0 °F 35.8 °F 37.4 °F 87% 29.86 in 6.2 mi North 8.1 mph - N/A   Scattered Clouds
8:30 AM 41.0 °F 36.4 °F 37.4 °F 87% 29.86 in 6.2 mi NE 6.9 mph - N/A   Partly Cloudy
9:00 AM 41.0 °F 37.1 °F 37.4 °F 87% 29.89 in 6.2 mi NNE 5.8 mph - N/A   Scattered Clouds
9:30 AM 42.8 °F 40.1 °F 37.4 °F 81% 29.89 in 6.2 mi NE 4.6 mph - N/A   Scattered Clouds
10:00 AM 44.6 °F 41.4 °F 37.4 °F 76% 29.89 in 6.2 mi North 5.8 mph - N/A   Mostly Cloudy
10:30 AM 42.8 °F 37.0 °F 33.8 °F 70% 29.89 in 6.2 mi North 10.4 mph - N/A   Mostly Cloudy
11:00 AM 42.8 °F 37.0 °F 32.0 °F 66% 29.92 in 6.2 mi North 10.4 mph - N/A   Mostly Cloudy
11:30 AM 42.8 °F 37.0 °F 33.8 °F 70% 29.92 in 6.2 mi North 10.4 mph - N/A   Mostly Cloudy
12:00 PM 42.8 °F 37.0 °F 30.2 °F 61% 29.92 in 6.2 mi North 10.4 mph - N/A   Scattered Clouds
12:30 PM 42.8 °F 37.5 °F 32.0 °F 66% 29.89 in 6.2 mi North 9.2 mph - N/A   Mostly Cloudy
1:00 PM 42.8 °F 37.5 °F 32.0 °F 66% 29.89 in 6.2 mi NNE 9.2 mph - N/A   Mostly Cloudy
1:30 PM 44.6 °F 39.7 °F 33.8 °F 66% 29.89 in 6.2 mi NE 9.2 mph - N/A   Scattered Clouds
2:00 PM 43 °F - 31 °F 51% 29.92 in 28 mi NNE 8.9 mph - -   Partly Cloudy
2:00 PM 42.8 °F 37.5 °F 30.2 °F 61% 29.89 in 6.2 mi NE 9.2 mph - N/A   Scattered Clouds
2:30 PM 42.8 °F 38.6 °F 30.2 °F 61% 29.89 in 6.2 mi ENE 6.9 mph - N/A   Scattered Clouds
3:00 PM 42.8 °F 38.0 °F 32.0 °F 66% 29.86 in 6.2 mi NE 8.1 mph - N/A   Mostly Cloudy
3:30 PM 42.8 °F 38.6 °F 32.0 °F 66% 29.86 in 6.2 mi NE 6.9 mph - N/A   Partly Cloudy
4:00 PM 42.8 °F 38.6 °F 32.0 °F 66% 29.83 in - NE 6.9 mph - N/A   Clear
4:30 PM 42.8 °F 38.6 °F 32.0 °F 66% 29.83 in 6.2 mi NE 6.9 mph - N/A   Partly Cloudy
5:00 PM 42.8 °F 38.6 °F 32.0 °F 66% 29.83 in - NE 6.9 mph - N/A   Clear
5:30 PM 41.0 °F 36.4 °F 33.8 °F 76% 29.80 in 6.2 mi NNE 6.9 mph - N/A Rain Light Rain
6:00 PM 41.0 °F 37.1 °F 33.8 °F 76% 29.80 in 6.2 mi NE 5.8 mph - N/A Rain Light Rain
6:30 PM 41.0 °F 35.8 °F 33.8 °F 76% 29.80 in 6.2 mi NNE 8.1 mph - N/A Rain Light Rain
7:00 PM 41.0 °F 35.8 °F 33.8 °F 76% 29.80 in 6.2 mi NE 8.1 mph - N/A Rain Light Rain Showers
7:30 PM 39.2 °F 33.6 °F 33.8 °F 81% 29.77 in 6.2 mi NE 8.1 mph - N/A Rain Light Rain Showers
8:00 PM 38 °F - 34 °F 81% 29.81 in 7 mi NNE 11.2 mph - - Snow Light Snow
8:00 PM 37.4 °F 30.3 °F 33.8 °F 87% 29.77 in 5.0 mi NNE 10.4 mph - N/A Rain Rain
8:30 PM 37.4 °F 30.8 °F 35.6 °F 93% 29.77 in 5.0 mi NE 9.2 mph - N/A Rain Light Rain
9:00 PM 37.4 °F 31.4 °F 35.6 °F 93% 29.74 in 6.2 mi NNE 8.1 mph - N/A Rain Light Rain
9:30 PM 37.4 °F 31.4 °F 35.6 °F 93% 29.74 in 6.2 mi NE 8.1 mph - N/A   Overcast
10:00 PM 37.4 °F 31.4 °F 35.6 °F 93% 29.71 in 5.6 mi NNE 8.1 mph - N/A Rain Light Rain
10:30 PM 37.4 °F 31.4 °F 35.6 °F 93% 29.68 in 4.3 mi NE 8.1 mph - N/A Rain Light Rain
11:00 PM 37.4 °F 30.8 °F 35.6 °F 93% 29.65 in 3.7 mi NE 9.2 mph - N/A   Overcast
11:30 PM 37.4 °F 30.3 °F 35.6 °F 93% 29.65 in 3.7 mi NE 10.4 mph - N/A Rain Light Rain